Regional Weather Roundup
Issued by NWS Charleston, SC

Current Version | Previous Version | Graphics & Text | Print | Product List | Glossary On
Versions: 1 2 3 4 5 6 7 8 9 10 11 12 13 14 15 16 17 18 19 20 21 22 23 24 25 26 27 28 29 30 31 32 33 34 35 36 37 38 39 40 41 42 43 44 45 46 47 48 49 50
000
ASUS42 KCHS 230525
RWRCHS

REGIONAL WEATHER ROUNDUP
NATIONAL WEATHER SERVICE CHARLESTON SC
100 AM EDT WED JUL 23 2014

NOTE: "FAIR" INDICATES FEW OR NO CLOUDS BELOW 12,000 FEET WITH NO
SIGNIFICANT WEATHER AND/OR OBSTRUCTIONS TO VISIBILITY.

NOT ALL STATIONS ARE QUALITY CONTROLLED BY THE NATIONAL
WEATHER SERVICE. USE DATA WITH CAUTION...ESPECIALLY
DEWPOINT OBSERVATIONS.

SCZ027-030-031-034>040-042>050-230600-
...SOUTH CAROLINA...

CITY           SKY/WX    TMP DP  RH WIND       PRES   REMARKS
N CHARLESTON   MOCLDY    77  73  87 CALM      30.08F
WATERFRONT PRK   N/A     81 N/A N/A S3          N/A
FORT JOHNSON   NOT AVBL
MOUNT PLEASANT FAIR      75  73  94 CALM      30.08F FOG
JOHNS ISLAND   CLEAR     75  66  73 CALM      30.08F
PINOPOLIS        N/A     79  75  89 S2        30.02R
MONCKS CORNER    N/A     75  75 100 CALM      30.08F
SUMMERVILLE    FAIR      73  73 100 CALM      30.09F
BEAUFORT MCAS  PTCLDY    78  75  90 CALM      30.08F
BEAUFORT ARPT  FAIR      77  77 100 CALM      30.07F
HILTON HEAD IS PTCLDY    75  75 100 CALM      30.08F
GEORGETOWN     NOT AVBL
WALTERBORO     CLEAR     73 N/A N/A CALM      30.09S
ORANGEBURG     MOCLDY    77  74  90 CALM      30.09F
BARNWELL       FAIR      75  73  94 CALM      30.09F
AIKEN          MOCLDY    73  73 100 S3        30.13F
MANNING        FAIR      73 N/A N/A MISG      30.09S
KINGSTREE      NOT AVBL
COLUMBIA       MOCLDY    80  74  81 CALM      30.08F
SUMTER         PTCLDY    75  75 100 E2        30.08F
FLORENCE       CLEAR     77  74  90 SW5       30.09F
MYRTLE BEACH   MOCLDY    79  73  83 W6        30.09S
N MYRTLE BEACH MOCLDY    80  74  81 S8        30.09S

$$

GAZ063-065-086>088-099>101-113>116-118-119-134-136>141-150-230600-
...GEORGIA...

CITY           SKY/WX    TMP DP  RH WIND       PRES   REMARKS
SAVANNAH ARPT  PTCLDY    77  74  90 N3        30.08F
HUNTER AAF     PTCLDY    77  76  97 CALM      30.06F
FORT STEWART   MOCLDY    75  73  94 CALM      30.07F
STATESBORO     NOT AVBL
SYLVANIA       MOCLDY    74  74 100 CALM      30.09F FOG
CLAXTON        FAIR     N/A N/A N/A CALM      30.08S HAZE
THOMSON        PTCLDY    76  76 100 CALM      30.14S
AUGUSTA-BUSH   CLOUDY    74  72  93 S3        30.08S
AUGUSTA-DANIEL MOCLDY    78  73  84 E5        30.10S
SWAINSBORO     FAIR      75  75 100 CALM      30.09S
VIDALIA          N/A     73  73 100 CALM      30.08F
ALMA           MOCLDY    73  71  93 CALM      30.08S
WAYCROSS       MOCLDY    78  77  98 CALM      30.08S
JESUP          NOT AVBL
BRUNSWICK      MOCLDY    77  73  88 CALM      30.08S
SAINT SIMONS   MOCLDY    80  74  81 S5        30.07F

$$

SCZ027-028-034-036>038-045-046-048>050-GAZ119-141-230600-
...LAKE AND SUPPLEMENTAL COASTAL OBSERVATIONS...

STATION/POSITION TIME  TEMP    WIND        PRES    WAVE   SWELL
                       AIR SEA DIR/SP/G            HT/PER HT/PER/DIR
                 (UTC) (F)     (DEG/KT/KT) (MB)    (FT/S) (FT/S/D)
UPR LAKE MARION  NOT AVBL
WINYAH BAY       0400   78     180/  4     1019.0S
LAKE MURRAY      0400   79     120/  2/  4 1019.0S
ACE BASIN NERRS  0500   76        CALM     1019.0S
FORT PULASKI     0500   79     140/  1/  1 1018.6F
SAPELO ISLAND    0400   77     130/  1     1019.0S

$$

ANZ835-935-AMZ111-154-330-350-352-354-374-450-454-472-230600-
...C-MAN AND BUOY OBSERVATIONS...

STATION/POSITION TIME  TEMP    WIND        PRES    WAVE   SWELL
                       AIR SEA DIR/SP/G            HT/PER HT/PER/DIR
                 (UTC) (F)     (DEG/KT/KT) (MB)    (FT/S) (FT/S/D)
FOLLY BEACH CMAN 0500   80     190/  7/  8 1019.0F
BUOY 41004       0500   81 82  170/  8/ 10 1018.1F   3/ 7   2/ 7
BUOY 41008       0500   81 84  150/  8/  8 1018.5S   2/ 7   2/110/ 7
5E ST. MARYS GA  0500      84                N/A     2/ 8
FRYING PAN BUOY  NOT AVBL
BUOY 41025       0500          VRB 16/ 17  1018.7F   4/ 7   2/110/ 8
CAPE LOOKOUT NC  0500   78     240/  7/ 10 1018.8S
BUOY 41002       0441   82 82  190/ 16/ 17 1020.6F   4/ 6   2/120/ 8
BUOY 41010       0500   83 83  150/ 12/ 14 1019.2F   4/ 7   3/110/ 7
BUOY 41012       NOT AVBL
ST AUGUSTINE FL  0500   80     230/  4/  5 1019.0S
CAPERS NEARSHORE 0400   80     180/  8/ 12   N/A
FRIPP NEARSHORE  NOT AVBL


$$



USA.gov is the U.S. government's official web portal to all federal, state and local government web resources and services.